Weather History for West Plains, MO

Change the Weather History Date:

Sunday, October 21, 2012

  Actual Average Record
Temperature  
Mean Temperature 62 °F 56 °F  
Max Temperature 76 °F 68 °F 87 °F (1978)
Min Temperature 47 °F 44 °F 22 °F (1952)
Degree Days  
Heating Degree Days 3 10  
Month to date heating degree days 202 150  
Since 1 July heating degree days 246 192  
Cooling Degree Days 0 0  
Month to date cooling degree days 0 20  
Year to date cooling degree days 1723 1348  
Growing Degree Days 10 (Base 50)    
Moisture  
Dew Point 56 °F    
Average Humidity 79    
Maximum Humidity 93    
Minimum Humidity 64    
Precipitation  
Precipitation 0.00 in 0.14 in 0.58 in (1949)
Month to date precipitation 2.55 2.62  
Year to date precipitation 27.67 36.78  
Sea Level Pressure  
Sea Level Pressure 29.93 in    
Wind  
Wind Speed 6 mph (SSE)    
Max Wind Speed 15 mph    
Max Gust Speed 22 mph    
Visibility 10 miles    
Events      
T = Trace of Precipitation, MM = Missing Value Source: NWS Daily Summary

Daily Weather History Graph

Daily Weather History Graph

Search for Another Location

Airport:

Trip Planner

Search our weather history database for the weather conditions in past years. The results will help you decide how hot, cold, wet, or windy it might be!

Date:

Astronomy

Oct. 21, 2012 Rise Set
Actual Time 7:21 AM CDT 6:22 PM CDT
Civil Twilight 6:54 AM CDT 6:48 PM CDT
Nautical Twilight 6:24 AM CDT 7:19 PM CDT
Astronomical Twilight 5:54 AM CDT 7:49 PM CDT
Moon 1:39 PM CDT (10/21) No Moon Set
Length of Visible Light 11h 53m
Length of Day
11h 01m
Waxing Crescent, 45% of the Moon is Illuminated
Oct 21
Waxing Crescent
Oct 21
First Quarter
Oct 29
Full
Nov 6
Last Quarter
Nov 13
New

Hourly Weather History & Observations

Time (CDT) Temp. Dew Point Humidity Pressure Visibility Wind Dir Wind Speed Gust Speed Precip Events Conditions
12:53 AM 52.0 °F 43.0 °F 71% 29.88 in 10.0 mi South 3.5 mph - N/A   Clear
2:53 AM 51.1 °F 44.1 °F 77% 29.89 in 10.0 mi ESE 3.5 mph - N/A   Clear
3:53 AM 46.9 °F 44.1 °F 90% 29.90 in 10.0 mi NE 3.5 mph - N/A   Clear
5:53 AM 48.0 °F 44.1 °F 86% 29.92 in 10.0 mi Calm Calm - N/A   Clear
6:53 AM 48.9 °F 44.1 °F 83% 29.92 in 10.0 mi Calm Calm - N/A   Clear
7:53 AM 48.0 °F 45.0 °F 89% 29.94 in 10.0 mi Calm Calm - N/A   Clear
8:53 AM 54.0 °F 46.0 °F 75% 29.95 in 10.0 mi Variable 3.5 mph - N/A   Clear
9:53 AM 59.0 °F 48.9 °F 69% 29.96 in 10.0 mi SSE 3.5 mph - N/A   Scattered Clouds
10:53 AM 64.9 °F 53.1 °F 65% 29.95 in 10.0 mi SSE 6.9 mph - N/A   Mostly Cloudy
11:53 AM 66.9 °F 55.9 °F 68% 29.95 in 10.0 mi SSE 6.9 mph - N/A   Overcast
12:53 PM 70.0 °F 59.0 °F 68% 29.94 in 10.0 mi SSE 5.8 mph - N/A   Overcast
1:53 PM 72.0 °F 60.1 °F 66% 29.92 in 10.0 mi SSE 8.1 mph - N/A   Partly Cloudy
2:53 PM 73.9 °F 62.1 °F 66% 29.90 in 10.0 mi SSE 6.9 mph - N/A   Clear
3:53 PM 75.0 °F 63.0 °F 66% 29.91 in 10.0 mi SE 6.9 mph - N/A   Overcast
4:53 PM 75.0 °F 64.0 °F 69% 29.91 in 10.0 mi South 9.2 mph - N/A   Mostly Cloudy
5:53 PM 73.0 °F 64.0 °F 73% 29.92 in 10.0 mi South 8.1 mph - N/A   Scattered Clouds
6:53 PM 71.1 °F 64.0 °F 78% 29.92 in 10.0 mi SSE 5.8 mph - N/A   Clear
7:53 PM 70.0 °F 64.0 °F 81% 29.94 in 10.0 mi SSE 9.2 mph - N/A   Clear
8:53 PM 70.0 °F 64.0 °F 81% 29.93 in 10.0 mi SSE 10.4 mph 17.3 mph N/A   Mostly Cloudy
9:53 PM 70.0 °F 64.0 °F 81% 29.94 in 10.0 mi South 9.2 mph - N/A   Clear
10:53 PM 69.1 °F 64.0 °F 84% 29.94 in 10.0 mi South 6.9 mph - N/A   Clear
11:53 PM 68.0 °F 64.0 °F 87% 29.94 in 10.0 mi South 10.4 mph - N/A   Clear